This demonstration page uses our WeatherBlox Daily Observations layout. Learn more.

39.01783, -85.05884

Hourly Observations for July 12, 2018

Temp ( °F °C ) Dew Point ( °F °C ) Humidity (%) Winds ( mph kmh ) Pressure ( in mb ) Visibility ( mi km ) Precip ( " mm )
12:52 am 00:52 Mostly Cloudy 74 23.3 54 12.2 50 50 NE 13 20 30.09 1019 10 16.09344 0 0
1:52 am 01:52 Mostly Cloudy 73 22.8 54 12.2 51 51 ENE 12 19 30.12 1020 10 16.09344 0 0
2:52 am 02:52 Partly Cloudy 72 22.2 54 12.2 53 53 ENE 9 15 30.12 1020 10 16.09344 0 0
3:52 am 03:52 Mostly Clear 69 20.6 53 11.7 57 57 E 8 13 30.12 1020 10 16.09344 0 0
4:52 am 04:52 Clear 70 21.1 53 11.7 55 55 E 9 15 30.09 1019 10 16.09344 0 0
5:52 am 05:52 Clear 70 21.1 53 11.7 55 55 ENE 12 19 30.09 1019 10 16.09344 0 0
6:52 am 06:52 Mostly Sunny 68 20 54 12.2 61 61 E 10 17 30.12 1020 10 16.09344 0 0
7:52 am 07:52 Mostly Sunny 70 21.1 55 12.8 59 59 ENE 8 13 30.12 1020 10 16.09344 0 0
8:52 am 08:52 Sunny 73 22.8 55 12.8 53 53 ENE 9 15 30.15 1021 10 16.09344 0 0
9:52 am 09:52 Sunny 77 25 54 12.2 45 45 NE 10 17 30.15 1021 10 16.09344 0 0
10:52 am 10:52 Mostly Sunny 80 26.7 55 12.8 42 42 ENE 6 9 30.15 1021 10 16.09344 0 0
11:52 am 11:52 Mostly Cloudy 81 27.2 52 11.1 37 37 NE 12 19 30.15 1021 10 16.09344 0 0
12:52 pm 12:52 Mostly Cloudy 83 28.3 51 10.6 33 33 N 5 7 30.15 1021 10 16.09344 0 0
1:52 pm 13:52 Mostly Cloudy 85 29.4 49 9.4 29 29 NNE 8 13 30.15 1021 10 16.09344 0 0
2:52 pm 14:52 Mostly Cloudy 86 30 47 8.3 26 26 NNE 6 9 30.12 1020 10 16.09344 0 0
3:52 pm 15:52 Mostly Cloudy 87 30.6 46 7.8 24 24 NE 9 15 30.12 1020 10 16.09344 0 0
4:52 pm 16:52 Mostly Cloudy 86 30 48 8.9 27 27 N 6 9 30.12 1020 10 16.09344 0 0
5:52 pm 17:52 Partly Cloudy 86 30 48 8.9 27 27 N 7 11 30.09 1019 10 16.09344 0 0
6:52 pm 18:52 Partly Cloudy 86 30 49 9.4 28 28 NNE 7 11 30.09 1019 10 16.09344 0 0
7:52 pm 19:52 Partly Cloudy 83 28.3 52 11.1 34 34 E 12 19 30.09 1019 10 16.09344 0 0
8:52 pm 20:52 Partly Cloudy 79 26.1 53 11.7 41 41 E 9 15 30.09 1019 10 16.09344 0 0
9:52 pm 21:52 Mostly Clear 77 25 54 12.2 45 45 E 7 11 30.09 1019 10 16.09344 0 0
10:52 pm 22:52 Mostly Clear 76 24.4 55 12.8 48 48 E 7 11 30.12 1020 10 16.09344 0 0
11:52 pm 23:52 Mostly Clear 74 23.3 55 12.8 52 52 E 6 9 30.09 1019 10 16.09344 0 0

Powered by AerisWeather